Flag for Brunei Weather past 2 weeks in Bandar Seri Begawan, Brunei

Now
90 °F

Broken clouds.


Feels Like: 105 °F
Forecast: 79 / 90 °F
Wind: 6 mph from Northwest

Location: Brunei Airport

Current Time: Jul 25, 2014 at 12:52:57 PM

Latest Report: Jul 25, 2014 at 12:30 PM


Visibility: 6 mi

Pressure: 29.83 "Hg

Humidity: 71%

Dew point: 79 °F

Location of Bandar Seri BegawanLocation

Historic Weather in Bandar Seri Begawan — Graph

°F

Bandar Seri Begawan temperature yesterday

Maximum temperature yesterday: 91 °F (at 12:30 PM)
Minimum temperature yesterday: 75 °F (at 12:30 AM)
Average temperature yesterday: 83 °F

Past Weeks' High & Low Weather Summary

 TemperatureHumidityPressure
High91 °F (Jul 11, 12:30 PM)100% (Jul 12, 4:00 PM)29.92 "Hg (Jul 12, 4:00 PM)
Low73 °F (Jul 14, 7:00 AM)49% (Jul 11, 1:30 PM)29.71 "Hg (Jul 22, 3:00 PM)
Average82 °F83%29.82 "Hg
* Reported Jul 10 11:30 AM — Jul 25 11:30 AM, Bandar Seri Begawan, Weather by CustomWeather, © 2014

Note: Actual official high and low records may vary slightly from our data, if they occured in-between our weather recording intervals... More about our weather records

Advertising

Bandar Seri Begawan weather history for previous 24 hours

 ConditionsComfort  
Time TempWeatherWind HumidityBarometerVisibility
11:30 AM
Jul 25
90 °FBroken clouds.5 mph67%29.86 "Hg6 mi
10:30 AM90 °FBroken clouds.3 mph71%29.86 "Hg5 mi
10:00 AM88 °FBroken clouds.5 mph75%29.86 "Hg5 mi
9:30 AM86 °FPartly sunny.3 mph79%29.89 "Hg5 mi
9:00 AM86 °FPartly sunny.5 mph79%29.89 "Hg5 mi
8:30 AM84 °FPartly sunny.3 mph84%29.86 "Hg5 mi
8:00 AM82 °FPartly sunny.3 mph89%29.86 "Hg5 mi
7:30 AM81 °FPartly sunny.3 mph94%29.86 "Hg4 mi
7:00 AM79 °FPartly sunny.3 mph100%29.86 "Hg4 mi
6:30 AM79 °FBroken clouds.2 mph100%29.86 "Hg4 mi
6:00 AM79 °FPassing clouds.2 mph100%29.86 "Hg4 mi
5:30 AM79 °FPassing clouds.2 mph100%29.86 "Hg6 mi
5:00 AM79 °FPartly cloudy.2 mph100%29.83 "Hg5 mi
4:30 AM79 °FPassing clouds.1 mph100%29.83 "Hg5 mi
4:00 AM79 °FPassing clouds.1 mph100%29.83 "Hg5 mi
3:30 AM79 °FPassing clouds.2 mph100%29.83 "Hg5 mi
3:00 AM79 °FPassing clouds.1 mph94%29.80 "Hg5 mi
2:30 AM79 °FPassing clouds.1 mph100%29.80 "Hg5 mi
2:00 AM81 °FPassing clouds.2 mph94%29.83 "Hg5 mi
1:30 AM81 °FPassing clouds.2 mph94%29.83 "Hg5 mi
1:00 AM81 °FPassing clouds.1 mph94%29.83 "Hg5 mi
12:30 AM81 °FPassing clouds.1 mph94%29.83 "Hg5 mi
12:00 AM81 °FPassing clouds.1 mph94%29.86 "Hg5 mi
11:30 PM
Jul 24
81 °FPassing clouds.2 mph94%29.86 "Hg5 mi
11:00 PM81 °FPassing clouds.1 mph94%29.86 "Hg5 mi
10:30 PM81 °FPassing clouds.3 mph94%29.86 "Hg6 mi
10:00 PM82 °FPassing clouds.2 mph89%29.86 "Hg6 mi
9:30 PM82 °FPassing clouds.1 mph89%29.83 "Hg6 mi
9:00 PM84 °FPassing clouds.2 mph84%29.83 "Hg6 mi
8:30 PM84 °FPassing clouds.2 mph84%29.83 "Hg6 mi
8:00 PM84 °FPassing clouds.2 mph84%29.80 "Hg6 mi
7:30 PM84 °FPassing clouds.6 mph79%29.80 "Hg6 mi
7:00 PM86 °FPassing clouds.6 mph75%29.77 "Hg6 mi
6:30 PM86 °FPartly sunny.7 mph75%29.77 "Hg6 mi
6:00 PM88 °FPartly sunny.8 mph70%29.77 "Hg6 mi
5:30 PM88 °FPartly sunny.8 mph70%29.74 "Hg6 mi
5:00 PM90 °FPartly sunny.7 mph67%29.74 "Hg6 mi
4:30 PM90 °FPartly sunny.7 mph67%29.74 "Hg6 mi
4:00 PM90 °FPartly sunny.7 mph67%29.74 "Hg6 mi
3:30 PM90 °FPartly sunny.9 mph67%29.74 "Hg6 mi
3:00 PM90 °FPartly sunny.8 mph67%29.77 "Hg6 mi
2:30 PM90 °FPartly sunny.6 mph67%29.77 "Hg6 mi
2:00 PM90 °FPartly sunny.7 mph67%29.80 "Hg6 mi
1:30 PM91 °FPartly sunny.7 mph59%29.80 "Hg6 mi
1:00 PM90 °FPartly sunny.7 mph59%29.80 "Hg6 mi
12:30 PM91 °FPartly sunny.6 mph56%29.83 "HgN/A
12:00 PM90 °FPartly sunny.6 mph55%29.83 "HgN/A
Weather by CustomWeather, © 2014

See weather overviewHow to use our weather pages